Location: State Camp
(41.2367°N, 77.7828°W)
Time: 19:35:48
(UTC-04:00)

Amateur Radio Satellites - All Passes

Search period start: 22 August 2014 19:05
Search period end: 23 August 2014 19:05
Location: State Camp, 41.2367°N, 77.7828°W

Satellite Date Start Highest point End Downlink Frequencies (MHz)
Time Altitude Azimuth
Hamsat 22 Aug 19:24:10 19:27:14 19° 267° (W) 19:30:20 145.90 MHz
STRAND 1 22 Aug 19:25:23 19:30:00 34° 97° (E) 19:34:35 ?
PCSat 22 Aug 19:27:23 19:32:47 83° 117° (ESE) 19:38:14 145.825 MHz
PANSAT 22 Aug 19:27:31 19:28:13 10° 189° (S) 19:28:54 not established
OPAL 22 Aug 19:37:42 19:39:24 12° 305° (NW) 19:41:05 ?
JAS-2 22 Aug 19:45:41 19:50:53 24° 265° (W) 19:55:40 435.800 - 435.900 CW/SSB, 435.910 FM
HO-68 22 Aug 20:02:36 20:08:22 27° 59° (ENE) 20:14:07 435.675 MHz FM
SO-67 22 Aug 20:08:34 20:11:39 30° 263° (W) 20:14:45 435.3500 MHz FM
ISS 22 Aug 20:20:28 20:23:46 58° 33° (NNE) 20:27:04 145.800 FM
UKube-1 22 Aug 20:31:02 20:33:17 14° 63° (ENE) 20:35:32 145.840 MHz, 145.915 MHz
Sapphire 22 Aug 20:41:15 20:45:57 30° 310° (NW) 20:50:42 437.095 MHz 1200 baud AX-25 AFSK
Oscar 11 22 Aug 20:47:23 20:48:57 12° 62° (ENE) 20:50:30 145.825 FM, Beacon 2401.500 USB
RS-15 22 Aug 20:50:26 20:59:12 28° 256° (WSW) 21:08:17 29.354 - 29.394 USB, Beacon 29.352 USB
STRAND 1 22 Aug 21:04:44 21:09:05 29° 293° (WNW) 21:13:25 ?
PCSat 22 Aug 21:13:16 21:16:54 18° 317° (NW) 21:20:33 145.825 MHz
HO-68 22 Aug 21:48:31 21:55:34 61° 257° (WSW) 22:02:39 435.675 MHz FM
ISS 22 Aug 21:58:01 22:00:11 16° 229° (SW) 22:02:22 145.800 FM
Oscar 10/S400 22 Aug 21:59:24 22:22:16 62° 171° (S) 07:04:55 145.825 - 145.975 CW/USB, Beacon 145.810 USB
UKube-1 22 Aug 22:04:44 22:09:00 58° 259° (W) 22:13:19 145.840 MHz, 145.915 MHz
Oscar 11 22 Aug 22:20:15 22:24:32 69° 259° (WSW) 22:28:53 145.825 FM, Beacon 2401.500 USB
FUNcube-1 22 Aug 22:21:51 22:25:47 44° 72° (ENE) 22:29:47 145.950 - 145.970 MHz USB
AO-40 22 Aug 23:21:46 02:02:29 33° 198° (SSW) 06:57:37 Beacon 2401.320
FUNcube-1 23 Aug 00:00:06 00:02:26 15° 269° (W) 00:04:48 145.950 - 145.970 MHz USB
Saudisat 1A 23 Aug 00:02:50 00:04:34 12° 108° (ESE) 00:06:19 436.775 MHz
MaSat-1 23 Aug 00:30:19 00:34:45 33° 55° (NE) 00:38:43 437.345 MHz
KITSAT 1 23 Aug 00:37:40 00:44:32 32° 107° (ESE) 00:51:25 435.175 FM
Saudisat 1A 23 Aug 01:39:10 01:43:33 70° 304° (NW) 01:47:59 436.775 MHz
Oscar 16 23 Aug 01:51:08 01:55:11 23° 94° (E) 01:59:13 437.025 USB, Beacon 2401.1428
AO-27 23 Aug 01:59:46 02:00:34 10° 88° (E) 02:01:22 436.795 MHz FM
MaSat-1 23 Aug 02:07:45 02:11:40 26° 256° (WSW) 02:15:12 437.345 MHz
JAS-1B 23 Aug 02:13:35 02:17:41 16° 84° (E) 02:21:26 435.800 - 435.900 CW/SSB
KITSAT 1 23 Aug 02:31:30 02:39:28 60° 306° (NW) 02:47:29 435.175 FM
PCSat 23 Aug 02:33:55 02:36:19 13° 38° (NE) 02:38:43 145.825 MHz
AO-Echo 23 Aug 02:53:36 02:58:01 38° 98° (E) 03:02:23 ?
Oscar 19 23 Aug 02:56:12 03:01:26 89° 104° (ESE) 03:06:38 437.125 CW, 437.150 USB
ITAMSAT 1 23 Aug 03:08:56 03:13:59 51° 100° (E) 03:19:00 435.822 SSB
Gurwin Techsat 1B 23 Aug 03:15:08 03:19:35 27° 95° (E) 03:24:00 435.225 FM
Uribyol 2 23 Aug 03:21:05 03:26:16 71° 103° (ESE) 03:31:27 436.500 FM
Saudisat 1A 23 Aug 03:22:24 03:23:58 12° 324° (NW) 03:25:32 436.775 MHz
Oscar 16 23 Aug 03:29:47 03:34:43 44° 290° (WNW) 03:39:37 437.025 USB, Beacon 2401.1428
OPAL 23 Aug 03:33:52 03:37:45 23° 62° (ENE) 03:41:41 ?
AO-27 23 Aug 03:35:33 03:40:45 88° 284° (WNW) 03:45:56 436.795 MHz FM
Sapphire 23 Aug 03:45:12 03:50:11 36° 52° (NE) 03:55:08 437.095 MHz 1200 baud AX-25 AFSK
JAS-1B 23 Aug 04:02:01 04:09:31 79° 287° (WNW) 04:15:45 435.800 - 435.900 CW/SSB
TMSAT-1 23 Aug 04:11:49 04:17:06 66° 102° (ESE) 04:22:21 436.925 FM
PCSat 23 Aug 04:15:25 04:20:50 65° 58° (ENE) 04:26:12 145.825 MHz
AO-7 23 Aug 04:15:53 04:21:49 21° 92° (E) 04:27:41 29.400 - 29.500 MHz
KITSAT 1 23 Aug 04:31:25 04:36:45 19° 331° (NNW) 04:42:06 435.175 FM
AO-Echo 23 Aug 04:32:57 04:36:34 22° 295° (WNW) 04:40:08 ?
Oscar 19 23 Aug 04:37:53 04:40:01 13° 301° (WNW) 04:42:07 437.125 CW, 437.150 USB
ITAMSAT 1 23 Aug 04:49:20 04:53:05 21° 297° (WNW) 04:56:50 435.822 SSB
Gurwin Techsat 1B 23 Aug 04:54:44 04:59:38 39° 291° (WNW) 05:04:30 435.225 FM
Uribyol 2 23 Aug 05:02:12 05:05:09 16° 300° (WNW) 05:08:05 436.500 FM
OPAL 23 Aug 05:11:34 05:16:20 44° 259° (W) 05:21:12 ?
Uosat F 23 Aug 05:14:42 05:19:34 50° 100° (E) 05:24:24 435.120 FM
AO-27 23 Aug 05:17:36 05:19:29 12° 302° (WNW) 05:21:21 436.795 MHz FM
Sapphire 23 Aug 05:28:42 05:33:33 34° 250° (WSW) 05:38:23 437.095 MHz 1200 baud AX-25 AFSK
SO-50 23 Aug 05:38:01 05:41:51 29° 114° (ESE) 05:45:47 436.795 FM
TMSAT-1 23 Aug 05:53:08 05:56:28 17° 299° (WNW) 05:59:47 436.925 FM
JAS-1B 23 Aug 05:54:44 05:58:35 15° 310° (NW) 06:02:08 435.800 - 435.900 CW/SSB
PCSat 23 Aug 06:00:13 06:03:40 17° 255° (WSW) 06:07:06 145.825 MHz
AO-7 23 Aug 06:07:06 06:15:25 80° 290° (WNW) 06:23:41 29.400 - 29.500 MHz
KITSAT 1 23 Aug 06:34:42 06:36:17 11° 2° (N) 06:37:52 435.175 FM
STRAND 1 23 Aug 06:41:14 06:46:09 49° 71° (ENE) 06:51:03 ?
UOSAT-12 23 Aug 06:47:31 06:49:00 11° 107° (ESE) 06:50:30 437.025 FM, 437.400 FM
JAS-2 23 Aug 06:53:09 06:58:03 42° 99° (E) 07:03:06 435.800 - 435.900 CW/SSB, 435.910 FM
Uosat F 23 Aug 06:54:24 06:57:59 20° 297° (WNW) 07:01:33 435.120 FM
Hamsat 23 Aug 07:08:24 07:12:48 77° 102° (ESE) 07:17:08 145.90 MHz
SO-50 23 Aug 07:18:17 07:22:20 32° 312° (NW) 07:26:29 436.795 FM
SO-67 23 Aug 07:32:47 07:35:10 17° 93° (E) 07:37:31 435.3500 MHz FM
AO-7 23 Aug 08:01:37 08:06:57 19° 310° (NW) 08:12:18 29.400 - 29.500 MHz
STRAND 1 23 Aug 08:21:56 08:25:35 20° 267° (W) 08:29:15 ?
UOSAT-12 23 Aug 08:23:50 08:28:27 80° 303° (WNW) 08:33:10 437.025 FM, 437.400 FM
Saudisat 1A 23 Aug 08:27:48 08:30:09 14° 39° (NE) 08:32:30 436.775 MHz
KITSAT 1 23 Aug 08:29:55 08:35:40 20° 32° (NNE) 08:41:22 435.175 FM
JAS-2 23 Aug 08:38:59 08:42:58 23° 295° (WNW) 08:47:00 435.800 - 435.900 CW/SSB, 435.910 FM
Hamsat 23 Aug 08:47:04 08:48:07 11° 298° (WNW) 08:49:09 145.90 MHz
RS-15 23 Aug 09:00:16 09:10:47 51° 111° (ESE) 09:21:06 29.354 - 29.394 USB, Beacon 29.352 USB
SO-67 23 Aug 09:05:18 09:08:13 25° 289° (WNW) 09:11:06 435.3500 MHz FM
HO-68 23 Aug 09:16:49 09:22:38 26° 94° (E) 09:28:24 435.675 MHz FM
UKube-1 23 Aug 09:53:34 09:57:02 23° 95° (E) 10:00:29 145.840 MHz, 145.915 MHz
Saudisat 1A 23 Aug 10:05:56 10:10:22 89° 238° (WSW) 10:14:46 436.775 MHz
UOSAT-12 23 Aug 10:06:57 10:09:23 14° 323° (NW) 10:11:51 437.025 FM, 437.400 FM
Oscar 11 23 Aug 10:08:35 10:11:58 22° 94° (E) 10:15:19 145.825 FM, Beacon 2401.500 USB
KITSAT 1 23 Aug 10:24:36 10:32:41 69° 56° (NE) 10:40:42 435.175 FM
HO-68 23 Aug 11:03:43 11:10:43 59° 292° (WNW) 11:17:41 435.675 MHz FM
RS-15 23 Aug 11:12:32 11:23:09 50° 314° (NW) 11:33:43 29.354 - 29.394 USB, Beacon 29.352 USB
UKube-1 23 Aug 11:29:25 11:33:15 31° 291° (WNW) 11:37:04 145.840 MHz, 145.915 MHz
Oscar 11 23 Aug 11:44:16 11:48:12 34° 290° (WNW) 11:52:08 145.825 FM, Beacon 2401.500 USB
FUNcube-1 23 Aug 11:46:38 11:51:05 82° 284° (WNW) 11:55:38 145.950 - 145.970 MHz USB
KITSAT 1 23 Aug 12:21:01 12:27:24 27° 255° (WSW) 12:33:46 435.175 FM
Oscar 19 23 Aug 12:36:17 12:39:28 17° 61° (ENE) 12:42:39 437.125 CW, 437.150 USB
ITAMSAT 1 23 Aug 12:52:42 12:53:29 10° 57° (ENE) 12:54:15 435.822 SSB
HO-68 23 Aug 12:54:42 12:56:58 12° 311° (NW) 12:59:14 435.675 MHz FM
JAS-1B 23 Aug 12:55:42 13:02:52 24° 56° (NE) 13:09:38 435.800 - 435.900 CW/SSB
Uribyol 2 23 Aug 13:02:46 13:05:24 14° 60° (ENE) 13:08:01 436.500 FM
ISS 23 Aug 13:03:49 13:06:10 18° 132° (SE) 13:08:33 145.800 FM
Oscar 16 23 Aug 13:08:01 13:12:34 33° 68° (ENE) 13:17:09 437.025 USB, Beacon 2401.1428
AO-27 23 Aug 13:16:29 13:19:56 18° 62° (ENE) 13:23:24 436.795 MHz FM
RS-15 23 Aug 13:31:04 13:39:01 22° 346° (NNW) 13:47:03 29.354 - 29.394 USB, Beacon 29.352 USB
TMSAT-1 23 Aug 13:56:07 13:58:42 14° 59° (ENE) 14:01:17 436.925 FM
AO-Echo 23 Aug 14:06:07 14:11:07 53° 72° (ENE) 14:16:00 ?
SO-50 23 Aug 14:09:03 14:13:18 31° 48° (NE) 14:17:35 436.795 FM
Oscar 19 23 Aug 14:13:09 14:18:15 65° 258° (WSW) 14:23:25 437.125 CW, 437.150 USB
MaSat-1 23 Aug 14:20:28 14:23:10 15° 100° (E) 14:25:59 437.345 MHz
ITAMSAT 1 23 Aug 14:26:55 14:32:05 78° 74° (ENE) 14:37:16 435.822 SSB
Gurwin Techsat 1B 23 Aug 14:36:06 14:41:03 42° 70° (ENE) 14:46:02 435.225 FM
Uribyol 2 23 Aug 14:39:03 14:44:12 78° 257° (WSW) 14:49:23 436.500 FM
ISS 23 Aug 14:39:24 14:42:38 52° 329° (NNW) 14:45:54 145.800 FM
JAS-1B 23 Aug 14:42:17 14:52:14 87° 74° (ENE) 15:01:36 435.800 - 435.900 CW/SSB
Oscar 16 23 Aug 14:47:25 14:51:54 30° 264° (W) 14:56:25 437.025 USB, Beacon 2401.1428
AO-27 23 Aug 14:53:52 14:58:59 59° 259° (W) 15:04:07 436.795 MHz FM
UOSAT-12 23 Aug 15:14:43 15:17:26 15° 38° (NE) 15:20:08 437.025 FM, 437.400 FM
AO-7 23 Aug 15:14:46 15:21:50 32° 57° (ENE) 15:28:53 29.400 - 29.500 MHz
TMSAT-1 23 Aug 15:32:36 15:37:54 82° 257° (WSW) 15:43:14 436.925 FM
AO-Echo 23 Aug 15:46:40 15:50:09 18° 268° (W) 15:53:35 ?
RS-15 23 Aug 15:48:06 15:56:43 25° 22° (NNE) 16:05:29 29.354 - 29.394 USB, Beacon 29.352 USB
SO-50 23 Aug 15:49:32 15:53:54 36° 245° (WSW) 15:58:18 436.795 FM
MaSat-1 23 Aug 15:54:51 15:59:35 66° 298° (WNW) 16:04:44 437.345 MHz
ITAMSAT 1 23 Aug 16:10:05 16:12:09 12° 271° (W) 16:14:13 435.822 SSB
Gurwin Techsat 1B 23 Aug 16:16:54 16:21:10 25° 266° (W) 16:25:27 435.225 FM
ISS 23 Aug 16:17:44 16:19:57 16° 348° (NNW) 16:22:10 145.800 FM
Uosat F 23 Aug 16:27:52 16:32:51 70° 74° (ENE) 16:37:51 435.120 FM
JAS-1B 23 Aug 16:36:02 16:43:26 24° 271° (W) 16:50:39 435.800 - 435.900 CW/SSB
UOSAT-12 23 Aug 16:53:33 16:58:18 87° 57° (ENE) 17:02:59 437.025 FM, 437.400 FM
AO-7 23 Aug 17:05:53 17:14:07 62° 256° (WSW) 17:22:23 29.400 - 29.500 MHz
JAS-2 23 Aug 17:06:20 17:10:58 22° 64° (ENE) 17:15:16 435.800 - 435.900 CW/SSB, 435.910 FM
OPAL 23 Aug 17:21:05 17:26:08 47° 102° (ESE) 17:31:08 ?
PANSAT 23 Aug 17:22:16 17:23:46 12° 177° (S) 17:25:16 not established
MaSat-1 23 Aug 17:36:02 17:37:46 12° 318° (NW) 17:39:31 437.345 MHz
ISS 23 Aug 17:55:41 17:57:42 15° 8° (N) 17:59:42 145.800 FM
RS-15 23 Aug 18:00:49 18:11:49 64° 52° (NE) 18:23:11 29.354 - 29.394 USB, Beacon 29.352 USB
Hamsat 23 Aug 18:01:33 18:05:42 53° 74° (ENE) 18:09:56 145.90 MHz
Uosat F 23 Aug 18:09:46 18:12:07 13° 270° (W) 18:14:29 435.120 FM
Sapphire 23 Aug 18:27:26 18:32:06 31° 109° (ESE) 18:36:47 437.095 MHz 1200 baud AX-25 AFSK
UOSAT-12 23 Aug 18:36:52 18:37:42 10° 254° (WSW) 18:38:33 437.025 FM, 437.400 FM
JAS-2 23 Aug 18:49:04 18:55:42 63° 258° (WSW) 19:01:34 435.800 - 435.900 CW/SSB, 435.910 FM
STRAND 1 23 Aug 18:53:04 18:56:14 16° 92° (E) 18:59:22 ?
PANSAT 23 Aug 19:02:46 19:03:09 10° 190° (S) 19:03:33 not established
